Location: Diebersbach
(48.5163°N, 8.0558°E)
Time: 08:42:19
(UTC+00:00)

Helios 1B rocket - Pass Details

Date: 20 June 2021
Orbit: 573 x 583 km, 98.2° (Epoch: 27 July)

Event Time Altitude Azimuth Distance (km) Brightness Sun altitude
Rises 00:44:54 0° 22° (NNE) 2,800 7.8 -16.1°
Reaches altitude 10° 00:47:14 10° 32° (NNE) 1,895 6.3 -16.0°
Maximum altitude 00:50:58 33° 97° (E) 973 3.7 -15.8°
Enters shadow 00:53:29 17° 152° (SSE) 1,460 4.1 -15.6°
